sat.trackr.live / text

‹ back to catalog

STARLINK-36706

NORAD 67657 · 2026-022K

PAYLOAD ACTIVE UNKNOWN

§ Identity

Operator
Country
US
Launch date
2026-02-02
Launch site
AFWTR
Launch vehicle
Mass (kg)
RCS (m²)

Purposes: comms

External: N2YO · Heavens-Above · Gunter

§ Orbital elements

Epoch: 2026-05-25T01:22:36.595200Z

Period
93.91 min
Inclination
97.2863°
Eccentricity
0.0000159
Mean motion
15.33438319 rev/d
Perigee alt
465.5 km
Apogee alt
465.7 km
Semi-major
6,843.7 km
B*
1.4287e-4
RAAN
178.2752°
Arg perigee
284.9080°
Mean anomaly
75.2145°
Rev number
1,727

§ Raw data

STARLINK-367061 67657U 26022K   26145.05736800  .00004539  00000+0  14287-3 0  99952 67657  97.2863 178.2752 0000159 284.9080  75.2145 15.33438319 17277

JSON: /api/v1/satellites/67657 · /tle

For live sub-satellite position, see the globe view (requires WebGL).

§ Visibility from observer

Set your observer location to see the next 7 days of passes ≥ 10°. The values pass through the URL so the page stays shareable.

No JS? Fill the form by hand. The geolocation button needs JavaScript.